Time,TemperatureF,DewpointF,PressureIn,WindDirection,WindDirectionDegrees,WindSpeedMPH,WindSpeedGustMPH,Humidity,HourlyPrecipIn,Conditions,Clouds,dailyrainin,SoftwareType,DateUTC
2013-03-14 00:11:00,32.4,22.0,30.19,NNE,22,2.2,-999.0,65,-99.99,,,0.00,Acu-Link.com,2013-03-14 04:11:00,
2013-03-14 00:41:00,32.2,21.0,30.20,SE,135,0.0,-999.0,63,-99.99,,,0.00,Acu-Link.com,2013-03-14 04:41:00,
2013-03-14 00:56:00,32.0,20.5,30.19,WSW,247,1.7,-999.0,62,-99.99,,,0.00,Acu-Link.com,2013-03-14 04:56:00,
2013-03-14 01:11:00,32.0,20.5,30.20,NNE,22,2.7,-999.0,62,-99.99,,,0.00,Acu-Link.com,2013-03-14 05:11:00,
2013-03-14 01:26:00,32.2,20.3,30.21,NNE,22,3.2,-999.0,61,-99.99,,,0.00,Acu-Link.com,2013-03-14 05:26:00,
2013-03-14 01:41:00,32.2,20.7,30.20,NE,45,2.2,-999.0,62,-99.99,,,0.00,Acu-Link.com,2013-03-14 05:41:00,
2013-03-14 01:57:00,32.0,20.5,30.20,West,270,3.7,-999.0,62,-99.99,,,0.00,Acu-Link.com,2013-03-14 05:57:00,
2013-03-14 02:12:00,31.6,20.1,30.20,NNW,337,4.2,-999.0,62,-99.99,,,0.00,Acu-Link.com,2013-03-14 06:12:00,
2013-03-14 02:27:00,31.5,20.7,30.21,WNW,292,2.7,-999.0,64,-99.99,,,0.00,Acu-Link.com,2013-03-14 06:27:00,
2013-03-14 02:42:00,31.3,20.9,30.21,NE,45,1.1,-999.0,65,-99.99,,,0.00,Acu-Link.com,2013-03-14 06:42:00,
2013-03-14 02:57:00,30.6,20.6,30.21,ESE,112,0.0,-999.0,66,-99.99,,,0.00,Acu-Link.com,2013-03-14 06:57:00,
2013-03-14 03:12:00,30.2,20.9,30.21,ESE,112,0.0,-999.0,68,-99.99,,,0.00,Acu-Link.com,2013-03-14 07:12:00,
2013-03-14 03:27:00,29.5,20.9,30.21,ENE,67,2.2,-999.0,70,-99.99,,,0.00,Acu-Link.com,2013-03-14 07:27:00,
2013-03-14 03:57:00,29.8,20.5,30.21,North,0,3.7,-999.0,68,-99.99,,,0.00,Acu-Link.com,2013-03-14 07:57:00,
2013-03-14 04:13:00,30.0,20.7,30.20,West,270,0.0,-999.0,68,-99.99,,,0.00,Acu-Link.com,2013-03-14 08:13:00,
2013-03-14 04:28:00,29.8,20.5,30.20,WNW,292,2.2,-999.0,68,-99.99,,,0.00,Acu-Link.com,2013-03-14 08:28:00,
2013-03-14 04:43:00,29.7,20.5,30.19,SSW,202,0.0,-999.0,68,-99.99,,,0.00,Acu-Link.com,2013-03-14 08:43:00,
2013-03-14 04:58:00,29.1,20.2,30.19,WNW,292,1.7,-999.0,69,-99.99,,,0.00,Acu-Link.com,2013-03-14 08:58:00,
2013-03-14 05:13:00,29.1,20.2,30.19,NW,315,2.2,-999.0,69,-99.99,,,0.00,Acu-Link.com,2013-03-14 09:13:00,
2013-03-14 05:28:00,29.1,19.9,30.19,NNW,337,2.2,-999.0,68,-99.99,,,0.00,Acu-Link.com,2013-03-14 09:28:00,
2013-03-14 05:43:00,29.1,20.2,30.19,NNW,337,3.7,-999.0,69,-99.99,,,0.00,Acu-Link.com,2013-03-14 09:43:00,
2013-03-14 05:58:00,28.9,20.0,30.21,North,0,5.3,-999.0,69,-99.99,,,0.00,Acu-Link.com,2013-03-14 09:58:00,
2013-03-14 06:13:00,28.8,20.3,30.21,NNW,337,3.7,-999.0,70,-99.99,,,0.00,Acu-Link.com,2013-03-14 10:13:00,
2013-03-14 06:29:00,28.4,20.5,30.22,ENE,67,2.7,-999.0,72,-99.99,,,0.00,Acu-Link.com,2013-03-14 10:29:00,
2013-03-14 06:44:00,28.4,20.2,30.23,SW,225,0.0,-999.0,71,-99.99,,,0.00,Acu-Link.com,2013-03-14 10:44:00,
2013-03-14 06:59:00,28.4,20.5,30.24,NNE,22,2.7,-999.0,72,-99.99,,,0.00,Acu-Link.com,2013-03-14 10:59:00,
2013-03-14 07:14:00,28.2,20.4,30.23,NNE,22,1.7,-999.0,72,-99.99,,,0.00,Acu-Link.com,2013-03-14 11:14:00,
2013-03-14 07:29:00,28.0,20.8,30.23,NNE,22,0.0,-999.0,74,-99.99,,,0.00,Acu-Link.com,2013-03-14 11:29:00,
2013-03-14 07:44:00,28.0,20.5,30.24,NW,315,3.7,-999.0,73,-99.99,,,0.00,Acu-Link.com,2013-03-14 11:44:00,
2013-03-14 07:59:00,27.9,20.7,30.23,ESE,112,2.7,-999.0,74,-99.99,,,0.00,Acu-Link.com,2013-03-14 11:59:00,
2013-03-14 08:14:00,27.7,20.5,30.23,ESE,112,1.7,-999.0,74,-99.99,,,0.00,Acu-Link.com,2013-03-14 12:14:00,
2013-03-14 08:29:00,27.7,20.2,30.21,NW,315,3.2,-999.0,73,-99.99,,,0.00,Acu-Link.com,2013-03-14 12:29:00,
2013-03-14 08:45:00,28.0,20.2,30.22,NW,315,1.7,-999.0,72,-99.99,,,0.00,Acu-Link.com,2013-03-14 12:45:00,
2013-03-14 09:00:00,28.6,20.4,30.24,West,270,4.2,-999.0,71,-99.99,,,0.00,Acu-Link.com,2013-03-14 13:00:00,
2013-03-14 09:15:00,29.1,19.5,30.25,NNW,337,5.8,-999.0,67,-99.99,,,0.00,Acu-Link.com,2013-03-14 13:15:00,
2013-03-14 09:30:00,29.7,19.8,30.26,NNW,337,3.7,-999.0,66,-99.99,,,0.00,Acu-Link.com,2013-03-14 13:30:00,
2013-03-14 09:45:00,30.7,19.6,30.26,ESE,112,0.0,-999.0,63,-99.99,,,0.00,Acu-Link.com,2013-03-14 13:45:00,
2013-03-14 10:00:00,32.0,18.5,30.27,NNW,337,3.7,-999.0,57,-99.99,,,0.00,Acu-Link.com,2013-03-14 14:00:00,
2013-03-14 10:15:00,33.3,19.3,30.28,NNW,337,2.7,-999.0,56,-99.99,,,0.00,Acu-Link.com,2013-03-14 14:15:00,
2013-03-14 10:30:00,33.6,19.6,30.27,NNE,22,2.7,-999.0,56,-99.99,,,0.00,Acu-Link.com,2013-03-14 14:30:00,
2013-03-14 10:45:00,34.9,20.8,30.27,NNW,337,1.1,-999.0,56,-99.99,,,0.00,Acu-Link.com,2013-03-14 14:45:00,
2013-03-14 11:01:00,36.9,21.4,30.26,NNW,337,3.2,-999.0,53,-99.99,,,0.00,Acu-Link.com,2013-03-14 15:01:00,
2013-03-14 11:16:00,36.0,21.0,30.27,NNW,337,3.7,-999.0,54,-99.99,,,0.00,Acu-Link.com,2013-03-14 15:16:00,
2013-03-14 11:31:00,37.2,20.3,30.27,NNW,337,2.7,-999.0,50,-99.99,,,0.00,Acu-Link.com,2013-03-14 15:31:00,
2013-03-14 12:01:00,39.9,20.8,30.26,WNW,292,6.3,-999.0,46,-99.99,,,0.00,Acu-Link.com,2013-03-14 16:01:00,
2013-03-14 12:16:00,41.2,20.4,30.26,North,0,2.7,-999.0,43,-99.99,,,0.00,Acu-Link.com,2013-03-14 16:16:00,
2013-03-14 12:31:00,41.9,19.9,30.24,West,270,2.7,-999.0,41,-99.99,,,0.00,Acu-Link.com,2013-03-14 16:31:00,
2013-03-14 12:46:00,44.1,21.3,30.24,NW,315,4.2,-999.0,40,-99.99,,,0.00,Acu-Link.com,2013-03-14 16:46:00,
2013-03-14 13:01:00,43.2,19.9,30.24,NW,315,4.7,-999.0,39,-99.99,,,0.00,Acu-Link.com,2013-03-14 17:01:00,
2013-03-14 13:17:00,45.3,22.4,30.23,SSW,202,2.7,-999.0,40,-99.99,,,0.00,Acu-Link.com,2013-03-14 17:17:00,
2013-03-14 13:32:00,45.1,19.8,30.23,SSW,202,2.7,-999.0,36,-99.99,,,0.00,Acu-Link.com,2013-03-14 17:32:00,
2013-03-14 13:47:00,45.7,20.3,30.23,SW,225,3.7,-999.0,36,-99.99,,,0.00,Acu-Link.com,2013-03-14 17:47:00,
2013-03-14 14:02:00,45.7,20.3,30.21,SSW,202,1.1,-999.0,36,-99.99,,,0.00,Acu-Link.com,2013-03-14 18:02:00,
2013-03-14 14:17:00,45.3,19.9,30.20,SSW,202,3.2,-999.0,36,-99.99,,,0.00,Acu-Link.com,2013-03-14 18:17:00,
2013-03-14 14:32:00,46.6,19.8,30.19,NNW,337,4.7,-999.0,34,-99.99,,,0.00,Acu-Link.com,2013-03-14 18:32:00,
2013-03-14 15:03:00,48.9,18.1,30.18,NNE,22,2.2,-999.0,29,-99.99,,,0.00,Acu-Link.com,2013-03-14 19:03:00,
2013-03-14 15:18:00,50.7,19.6,30.17,NNW,337,5.8,-999.0,29,-99.99,,,0.00,Acu-Link.com,2013-03-14 19:18:00,
2013-03-14 15:33:00,52.3,18.5,30.16,WSW,247,2.7,-999.0,26,-99.99,,,0.00,Acu-Link.com,2013-03-14 19:33:00,
2013-03-14 15:48:00,52.5,21.2,30.16,NW,315,2.2,-999.0,29,-99.99,,,0.00,Acu-Link.com,2013-03-14 19:48:00,
2013-03-14 16:03:00,54.5,22.9,30.14,South,180,2.7,-999.0,29,-99.99,,,0.00,Acu-Link.com,2013-03-14 20:03:00,
2013-03-14 16:18:00,54.5,22.9,30.13,WSW,247,3.7,-999.0,29,-99.99,,,0.00,Acu-Link.com,2013-03-14 20:18:00,
2013-03-14 16:33:00,53.8,20.6,30.13,NNE,22,1.7,-999.0,27,-99.99,,,0.00,Acu-Link.com,2013-03-14 20:33:00,
2013-03-14 16:48:00,55.0,19.8,30.12,WSW,247,2.2,-999.0,25,-99.99,,,0.00,Acu-Link.com,2013-03-14 20:48:00,
2013-03-14 17:03:00,54.5,20.3,30.11,West,270,3.2,-999.0,26,-99.99,,,0.00,Acu-Link.com,2013-03-14 21:03:00,
2013-03-14 17:34:00,55.0,17.9,30.10,West,270,1.7,-999.0,23,-99.99,,,0.00,Acu-Link.com,2013-03-14 21:34:00,
2013-03-14 17:49:00,54.3,19.2,30.10,NNE,22,1.7,-999.0,25,-99.99,,,0.00,Acu-Link.com,2013-03-14 21:49:00,
2013-03-14 18:04:00,56.5,21.1,30.11,NW,315,2.7,-999.0,25,-99.99,,,0.00,Acu-Link.com,2013-03-14 22:04:00,
2013-03-14 18:19:00,53.6,22.9,30.10,NNW,337,0.0,-999.0,30,-99.99,,,0.00,Acu-Link.com,2013-03-14 22:19:00,
2013-03-14 18:34:00,52.0,22.3,30.11,NNE,22,3.2,-999.0,31,-99.99,,,0.00,Acu-Link.com,2013-03-14 22:34:00,
2013-03-14 18:49:00,51.3,23.2,30.11,SSE,157,0.0,-999.0,33,-99.99,,,0.00,Acu-Link.com,2013-03-14 22:49:00,
2013-03-14 19:04:00,50.5,25.9,30.11,NNE,22,2.2,-999.0,38,-99.99,,,0.00,Acu-Link.com,2013-03-14 23:04:00,
2013-03-14 19:19:00,49.6,27.5,30.10,South,180,1.7,-999.0,42,-99.99,,,0.00,Acu-Link.com,2013-03-14 23:19:00,
2013-03-14 19:35:00,48.7,27.2,30.10,NNW,337,1.1,-999.0,43,-99.99,,,0.00,Acu-Link.com,2013-03-14 23:35:00,
2013-03-14 19:50:00,48.2,27.9,30.10,ENE,67,0.0,-999.0,45,-99.99,,,0.00,Acu-Link.com,2013-03-14 23:50:00,
2013-03-14 20:05:00,47.7,28.5,30.11,WSW,247,0.0,-999.0,47,-99.99,,,0.00,Acu-Link.com,2013-03-15 00:05:00,
2013-03-14 20:20:00,47.1,28.4,30.11,ESE,112,0.0,-999.0,48,-99.99,,,0.00,Acu-Link.com,2013-03-15 00:20:00,
2013-03-14 20:35:00,46.8,28.2,30.11,NNE,22,0.0,-999.0,48,-99.99,,,0.00,Acu-Link.com,2013-03-15 00:35:00,
2013-03-14 20:50:00,46.2,29.6,30.13,ESE,112,0.0,-999.0,52,-99.99,,,0.00,Acu-Link.com,2013-03-15 00:50:00,
2013-03-14 21:05:00,45.7,30.5,30.14,NE,45,2.2,-999.0,55,-99.99,,,0.00,Acu-Link.com,2013-03-15 01:05:00,
2013-03-14 21:20:00,44.4,34.5,30.14,South,180,3.7,-999.0,68,-99.99,,,0.00,Acu-Link.com,2013-03-15 01:20:00,
2013-03-14 21:35:00,42.1,37.3,30.14,South,180,2.2,-999.0,83,-99.99,,,0.00,Acu-Link.com,2013-03-15 01:35:00,
2013-03-14 21:51:00,41.7,36.9,30.15,SE,135,0.0,-999.0,83,-99.99,,,0.01,Acu-Link.com,2013-03-15 01:51:00,
2013-03-14 22:51:00,40.8,39.5,30.14,South,180,0.0,-999.0,95,-99.99,,,0.01,Acu-Link.com,2013-03-15 02:51:00,
2013-03-14 23:06:00,40.6,38.7,30.13,ESE,112,0.0,-999.0,93,-99.99,,,0.01,Acu-Link.com,2013-03-15 03:06:00,
2013-03-14 23:21:00,40.3,39.0,30.13,ESE,112,0.0,-999.0,95,-99.99,,,0.01,Acu-Link.com,2013-03-15 03:21:00,
2013-03-14 23:36:00,39.6,37.7,30.13,ESE,112,0.0,-999.0,93,-99.99,,,0.01,Acu-Link.com,2013-03-15 03:36:00,
2013-03-14 23:51:00,39.4,38.4,30.12,WNW,292,0.0,-999.0,96,-99.99,,,0.01,Acu-Link.com,2013-03-15 03:51:00,